| time (UTC) | temp C | wind direction | speed KPH | gust KPH | rain 1hr cm | rain 24hr cm | rain mn cm | humidity % | barometer mb |
| 20260509064559 | 20 | 332 | 0.0 | 0.0 | 0.00 | 0.53 | 0.03 | 91 | 1011.0 |
| 20260509064047 | 20 | 332 | 0.0 | 0.0 | 0.00 | 0.53 | 0.03 | 91 | 1011.1 |
| 20260509063539 | 20 | 332 | 0.0 | 0.0 | 0.00 | 0.53 | 0.03 | 91 | 1010.9 |
| 20260509063047 | 20 | 332 | 0.0 | 0.0 | 0.00 | 0.53 | 0.03 | 91 | 1011.0 |
| 20260509062539 | 20 | 335 | 0.0 | 0.0 | 0.00 | 0.53 | 0.03 | 91 | 1011.1 |
| 20260509062031 | 20 | 333 | 0.0 | 0.0 | 0.00 | 0.53 | 0.03 | 91 | 1010.9 |
| 20260509061558 | 20 | 335 | 0.0 | 0.0 | 0.00 | 0.53 | 0.03 | 91 | 1010.3 |
| 20260509061046 | 20 | 335 | 0.0 | 0.0 | 0.03 | 0.53 | 0.03 | 91 | 1010.2 |
| 20260509060538 | 20 | 335 | 0.0 | 0.0 | 0.03 | 0.53 | 0.03 | 91 | 1009.7 |
| 20260509060046 | 20 | 335 | 0.0 | 0.0 | 0.03 | 0.53 | 0.03 | 91 | 1009.6 |
| 20260509055539 | 19 | 335 | 0.0 | 0.0 | 0.03 | 0.53 | 0.03 | 91 | 1009.4 |
| 20260509055031 | 19 | 335 | 0.0 | 0.0 | 0.03 | 0.53 | 0.03 | 91 | 1009.6 |
| 20260509054537 | 19 | 335 | 0.0 | 0.0 | 0.03 | 0.53 | 0.03 | 91 | 1009.8 |
| 20260509054030 | 19 | 335 | 0.0 | 0.0 | 0.03 | 0.53 | 0.03 | 91 | 1010.1 |
| 20260509053606 | 19 | 335 | 0.0 | 0.0 | 0.03 | 0.53 | 0.03 | 91 | 1010.1 |
| 20260509053036 | 19 | 335 | 0.0 | 0.0 | 0.03 | 0.53 | 0.03 | 90 | 1010.2 |
| 20260509052546 | 19 | 336 | 0.0 | 0.0 | 0.03 | 0.53 | 0.03 | 90 | 1010.4 |
| 20260509052040 | 19 | 336 | 0.0 | 0.0 | 0.03 | 0.53 | 0.03 | 90 | 1010.6 |
| 20260509051529 | 19 | 336 | 0.0 | 0.0 | 0.03 | 0.53 | 0.03 | 90 | 1010.5 |
| 20260509051039 | 20 | 336 | 0.0 | 0.0 | 0.00 | 0.51 | 0.00 | 90 | 1010.8 |
| 20260509050530 | 20 | 336 | 0.0 | 0.0 | 0.00 | 0.51 | 0.00 | 90 | 1010.6 |
| 20260509050041 | 20 | 336 | 0.0 | 0.0 | 0.00 | 0.51 | 0.00 | 89 | 1010.8 |
| 20260509045532 | 20 | 336 | 0.0 | 0.0 | 0.00 | 0.51 | 0.51 | 89 | 1010.8 |
| 20260509045039 | 20 | 336 | 0.0 | 0.0 | 0.00 | 0.51 | 0.51 | 89 | 1010.7 |
| 20260509044548 | 20 | 335 | 0.0 | 0.0 | 0.00 | 0.51 | 0.51 | 89 | 1010.5 |
| 20260509044041 | 20 | 335 | 0.0 | 0.0 | 0.00 | 0.51 | 0.51 | 88 | 1010.4 |
| 20260509043529 | 20 | 335 | 0.0 | 0.0 | 0.00 | 0.51 | 0.51 | 88 | 1010.5 |
| 20260509043043 | 20 | 335 | 0.0 | 0.0 | 0.00 | 0.51 | 0.51 | 88 | 1010.7 |
| 20260509042534 | 20 | 335 | 0.0 | 0.0 | 0.00 | 0.51 | 0.51 | 88 | 1010.4 |
| 20260509042107 | 20 | 335 | 0.0 | 0.0 | 0.00 | 0.51 | 0.51 | 88 | 1010.3 |
| 20260509041604 | 20 | 335 | 0.0 | 0.0 | 0.00 | 0.51 | 0.51 | 88 | 1010.1 |
| 20260509041034 | 20 | 335 | 0.0 | 0.0 | 0.00 | 0.51 | 0.51 | 88 | 1010.0 |
| 20260509040541 | 20 | 334 | 0.0 | 0.0 | 0.00 | 0.51 | 0.51 | 88 | 1010.0 |
| 20260509040049 | 20 | 334 | 0.0 | 0.0 | 0.00 | 0.51 | 0.51 | 88 | 1010.1 |
| 20260509035600 | 20 | 334 | 0.0 | 0.0 | 0.00 | 0.51 | 0.51 | 88 | 1010.0 |
| 20260509035046 | 20 | 334 | 0.0 | 0.0 | 0.00 | 0.51 | 0.51 | 87 | 1010.0 |
| 20260509034533 | 20 | 333 | 0.0 | 0.0 | 0.00 | 0.51 | 0.51 | 87 | 1009.6 |
| 20260509034027 | 20 | 333 | 0.0 | 0.0 | 0.00 | 0.51 | 0.51 | 87 | 1009.9 |
| 20260509033546 | 20 | 335 | 0.0 | 0.0 | 0.00 | 0.51 | 0.51 | 87 | 1010.3 |
| 20260509033033 | 21 | 336 | 0.0 | 0.0 | 0.00 | 0.51 | 0.51 | 86 | 1009.8 |
| 20260509032540 | 21 | 336 | 0.0 | 0.0 | 0.00 | 0.51 | 0.51 | 85 | 1009.8 |
| 20260509032032 | 21 | 333 | 0.0 | 0.0 | 0.00 | 0.51 | 0.51 | 84 | 1009.6 |
| 20260509031541 | 21 | 334 | 0.0 | 0.0 | 0.00 | 0.51 | 0.51 | 83 | 1009.9 |
| 20260509031055 | 21 | 334 | 0.0 | 0.0 | 0.00 | 0.51 | 0.51 | 82 | 1009.6 |
| 20260509030545 | 21 | 334 | 0.0 | 0.0 | 0.00 | 0.51 | 0.51 | 81 | 1009.8 |
| 20260509030035 | 21 | 335 | 0.0 | 0.0 | 0.00 | 0.51 | 0.51 | 81 | 1009.9 |
| 20260509025544 | 21 | 332 | 0.0 | 0.0 | 0.00 | 0.51 | 0.51 | 81 | 1010.3 |
| 20260509025032 | 21 | 333 | 0.0 | 0.0 | 0.00 | 0.51 | 0.51 | 81 | 1010.5 |
| 20260509024605 | 21 | 334 | 0.0 | 0.0 | 0.00 | 0.51 | 0.51 | 81 | 1010.5 |
| 20260509024035 | 21 | 334 | 0.0 | 0.0 | 0.00 | 0.51 | 0.51 | 81 | 1010.4 |
| 20260509023544 | 21 | 334 | 0.0 | 0.0 | 0.00 | 0.51 | 0.51 | 81 | 1010.2 |
| 20260509023030 | 21 | 334 | 0.0 | 0.0 | 0.00 | 0.51 | 0.51 | 81 | 1010.1 |
| 20260509022544 | 21 | 334 | 0.0 | 0.0 | 0.00 | 0.51 | 0.51 | 81 | 1009.9 |
| 20260509022035 | 21 | 334 | 0.0 | 0.0 | 0.00 | 0.51 | 0.51 | 81 | 1009.8 |
| 20260509021545 | 21 | 334 | 0.0 | 0.0 | 0.00 | 0.51 | 0.51 | 80 | 1009.8 |
| 20260509021035 | 21 | 333 | 0.0 | 0.0 | 0.00 | 0.51 | 0.51 | 80 | 1009.6 |
| 20260509020533 | 21 | 333 | 0.0 | 0.0 | 0.00 | 0.51 | 0.51 | 79 | 1009.3 |
| 20260509020107 | 21 | 334 | 0.0 | 0.0 | 0.00 | 0.51 | 0.51 | 79 | 1009.1 |
| 20260509015540 | 22 | 334 | 0.0 | 0.0 | 0.00 | 0.51 | 0.51 | 79 | 1009.0 |
| 20260509015048 | 22 | 333 | 0.0 | 0.0 | 0.00 | 0.51 | 0.51 | 78 | 1008.9 |
| 20260509014534 | 22 | 334 | 0.0 | 0.0 | 0.00 | 0.51 | 0.51 | 78 | 1008.7 |
| 20260509014042 | 22 | 334 | 0.0 | 0.0 | 0.00 | 0.51 | 0.51 | 78 | 1008.7 |
| 20260509013553 | 22 | 334 | 0.0 | 0.0 | 0.00 | 0.51 | 0.51 | 78 | 1008.8 |
| 20260509013041 | 22 | 335 | 0.0 | 0.0 | 0.00 | 0.51 | 0.51 | 77 | 1008.9 |
| 20260509012528 | 22 | 334 | 0.0 | 0.0 | 0.00 | 0.51 | 0.51 | 77 | 1008.8 |
| 20260509012041 | 22 | 334 | 0.0 | 0.0 | 0.00 | 0.51 | 0.51 | 76 | 1008.7 |
| 20260509011558 | 22 | 335 | 0.0 | 0.0 | 0.00 | 0.51 | 0.51 | 76 | 1008.7 |
| 20260509011046 | 22 | 334 | 0.0 | 0.0 | 0.00 | 0.51 | 0.51 | 76 | 1008.7 |
| 20260509010544 | 22 | 334 | 0.0 | 0.0 | 0.00 | 0.51 | 0.51 | 75 | 1008.7 |
| 20260509010032 | 22 | 334 | 0.0 | 0.0 | 0.00 | 0.51 | 0.51 | 75 | 1008.8 |
| 20260509005539 | 22 | 333 | 0.0 | 0.0 | 0.03 | 0.51 | 0.51 | 75 | 1008.7 |
| 20260509005034 | 23 | 334 | 0.0 | 0.0 | 0.03 | 0.51 | 0.51 | 75 | 1008.7 |
| 20260509004548 | 23 | 334 | 0.0 | 0.0 | 0.03 | 0.51 | 0.51 | 75 | 1008.7 |
| 20260509004040 | 23 | 335 | 0.0 | 0.0 | 0.03 | 0.51 | 0.51 | 75 | 1008.6 |
| 20260509003531 | 23 | 336 | 0.0 | 0.0 | 0.03 | 0.51 | 0.51 | 75 | 1008.6 |
| 20260509003040 | 23 | 334 | 0.0 | 0.0 | 0.03 | 0.51 | 0.51 | 75 | 1008.5 |
| 20260509002535 | 23 | 333 | 0.0 | 0.0 | 0.03 | 0.51 | 0.51 | 75 | 1008.3 |
| 20260509002043 | 23 | 333 | 0.0 | 0.0 | 0.03 | 0.51 | 0.51 | 75 | 1008.3 |
| 20260509001531 | 23 | 334 | 0.0 | 0.0 | 0.03 | 0.51 | 0.51 | 75 | 1008.2 |
| 20260509001045 | 23 | 335 | 0.0 | 0.0 | 0.03 | 0.51 | 0.51 | 75 | 1008.2 |
| 20260509000603 | 23 | 334 | 0.0 | 0.0 | 0.03 | 0.51 | 0.51 | 74 | 1008.2 |
| 20260509000052 | 23 | 334 | 0.0 | 0.0 | 0.03 | 0.51 | 0.51 | 74 | 1008.3 |
| 20260508235545 | 23 | 334 | 0.0 | 0.0 | 0.00 | 0.48 | 0.48 | 73 | 1008.3 |
| 20260508235032 | 23 | 334 | 0.0 | 0.0 | 0.00 | 0.48 | 0.48 | 73 | 1008.3 |
| 20260508234541 | 24 | 334 | 0.0 | 0.0 | 0.00 | 0.48 | 0.48 | 73 | 1008.3 |
| 20260508234049 | 24 | 334 | 0.0 | 0.0 | 0.00 | 0.48 | 0.48 | 72 | 1008.3 |
| 20260508233559 | 24 | 333 | 0.0 | 0.0 | 0.00 | 0.48 | 0.48 | 72 | 1008.4 |
| 20260508233049 | 24 | 336 | 0.0 | 0.0 | 0.00 | 0.48 | 0.48 | 71 | 1008.3 |
| 20260508232546 | 24 | 334 | 0.0 | 0.0 | 0.00 | 0.48 | 0.48 | 71 | 1008.4 |
| 20260508232042 | 24 | 333 | 0.0 | 0.0 | 0.00 | 0.48 | 0.48 | 71 | 1008.4 |
| 20260508231553 | 25 | 333 | 0.0 | 0.0 | 0.00 | 0.48 | 0.48 | 70 | 1008.5 |
| 20260508231039 | 25 | 333 | 0.0 | 0.0 | 0.00 | 0.48 | 0.48 | 70 | 1008.5 |
| 20260508230531 | 25 | 333 | 0.0 | 0.0 | 0.00 | 0.48 | 0.48 | 70 | 1008.6 |
| 20260508230044 | 25 | 333 | 0.0 | 0.0 | 0.00 | 0.48 | 0.48 | 69 | 1008.6 |
| 20260508225538 | 25 | 333 | 0.0 | 0.0 | 0.00 | 0.48 | 0.48 | 69 | 1008.5 |
| 20260508225046 | 25 | 334 | 0.0 | 0.0 | 0.00 | 0.48 | 0.48 | 68 | 1008.5 |
| 20260508224534 | 25 | 333 | 0.0 | 0.0 | 0.00 | 0.48 | 0.48 | 67 | 1008.4 |
| 20260508224045 | 25 | 333 | 0.0 | 0.0 | 0.00 | 0.48 | 0.48 | 66 | 1008.5 |
| 20260508223559 | 25 | 334 | 0.0 | 0.0 | 0.00 | 0.48 | 0.48 | 66 | 1008.5 |
| 20260508223032 | 25 | 334 | 0.0 | 0.0 | 0.00 | 0.48 | 0.48 | 66 | 1008.5 |
| 20260508222540 | 25 | 333 | 0.0 | 0.0 | 0.00 | 0.48 | 0.48 | 66 | 1008.6 |
| 20260508222028 | 25 | 333 | 0.0 | 0.0 | 0.00 | 0.48 | 0.48 | 64 | 1008.6 |
| 20260508221539 | 26 | 333 | 0.0 | 0.0 | 0.00 | 0.48 | 0.48 | 65 | 1008.6 |
| 20260508221030 | 25 | 335 | 0.0 | 0.0 | 0.00 | 0.48 | 0.48 | 65 | 1008.6 |
| 20260508220540 | 25 | 335 | 0.0 | 0.0 | 0.00 | 0.48 | 0.48 | 65 | 1008.5 |
| 20260508220028 | 26 | 333 | 0.0 | 0.0 | 0.00 | 0.48 | 0.48 | 65 | 1008.4 |
| 20260508215542 | 26 | 335 | 0.0 | 0.0 | 0.00 | 0.48 | 0.48 | 64 | 1008.5 |
| 20260508215031 | 26 | 332 | 0.0 | 0.0 | 0.00 | 0.48 | 0.48 | 66 | 1008.4 |
| 20260508214543 | 26 | 333 | 0.0 | 0.0 | 0.00 | 0.48 | 0.48 | 66 | 1008.5 |
| 20260508214057 | 26 | 333 | 0.0 | 0.0 | 0.00 | 0.48 | 0.48 | 66 | 1008.5 |
| 20260508213547 | 26 | 333 | 0.0 | 0.0 | 0.00 | 0.48 | 0.48 | 65 | 1008.4 |
| 20260508213035 | 26 | 334 | 0.0 | 0.0 | 0.00 | 0.48 | 0.48 | 66 | 1008.6 |
| 20260508212542 | 26 | 331 | 0.0 | 0.0 | 0.00 | 0.48 | 0.48 | 66 | 1008.8 |
| 20260508212034 | 26 | 335 | 0.0 | 0.0 | 0.00 | 0.48 | 0.48 | 66 | 1009.0 |
| 20260508211542 | 26 | 333 | 0.0 | 0.0 | 0.00 | 0.48 | 0.48 | 66 | 1009.1 |
| 20260508211033 | 26 | 334 | 0.0 | 0.0 | 0.00 | 0.48 | 0.48 | 66 | 1009.1 |
| 20260508210541 | 26 | 333 | 0.0 | 0.0 | 0.00 | 0.48 | 0.48 | 65 | 1009.1 |
| 20260508210034 | 26 | 333 | 0.0 | 0.0 | 0.00 | 0.48 | 0.48 | 66 | 1009.3 |
| 20260508205545 | 25 | 333 | 0.0 | 0.0 | 0.00 | 0.48 | 0.48 | 65 | 1009.5 |
| 20260508205033 | 26 | 333 | 0.0 | 0.0 | 0.00 | 0.48 | 0.48 | 65 | 1009.7 |
| 20260508204546 | 26 | 333 | 0.0 | 0.0 | 0.00 | 0.48 | 0.48 | 64 | 1009.8 |
| 20260508204034 | 26 | 333 | 0.0 | 0.0 | 0.00 | 0.48 | 0.48 | 64 | 1009.9 |
| 20260508203541 | 26 | 333 | 0.0 | 0.0 | 0.00 | 0.48 | 0.48 | 64 | 1009.9 |
| 20260508203033 | 26 | 335 | 0.0 | 0.0 | 0.00 | 0.48 | 0.48 | 65 | 1009.9 |
| 20260508202540 | 26 | 332 | 0.0 | 0.0 | 0.00 | 0.48 | 0.48 | 65 | 1010.0 |
| 20260508202032 | 25 | 336 | 0.0 | 0.0 | 0.00 | 0.48 | 0.48 | 64 | 1010.2 |
| 20260508201603 | 25 | 334 | 0.0 | 0.0 | 0.00 | 0.48 | 0.48 | 65 | 1010.5 |
| 20260508201039 | 25 | 333 | 0.0 | 0.0 | 0.00 | 0.48 | 0.48 | 65 | 1010.5 |
| 20260508200531 | 25 | 334 | 0.0 | 0.0 | 0.00 | 0.48 | 0.48 | 64 | 1010.6 |
| 20260508200041 | 25 | 334 | 0.0 | 0.0 | 0.00 | 0.48 | 0.48 | 64 | 1010.6 |
| 20260508195533 | 25 | 334 | 0.0 | 0.0 | 0.00 | 0.48 | 0.48 | 65 | 1010.7 |
| 20260508195040 | 25 | 334 | 0.0 | 0.0 | 0.00 | 0.48 | 0.48 | 66 | 1010.7 |
| 20260508194533 | 24 | 335 | 0.0 | 0.0 | 0.00 | 0.48 | 0.48 | 66 | 1010.8 |
| 20260508194103 | 25 | 334 | 0.0 | 0.0 | 0.00 | 0.48 | 0.48 | 65 | 1010.8 |
| 20260508193532 | 25 | 334 | 0.0 | 0.0 | 0.00 | 0.48 | 0.48 | 64 | 1010.8 |
| 20260508193034 | 25 | 335 | 0.0 | 0.0 | 0.00 | 0.48 | 0.48 | 64 | 1010.8 |
| 20260508192601 | 25 | 335 | 0.0 | 0.0 | 0.00 | 0.48 | 0.48 | 63 | 1010.7 |
| 20260508192046 | 25 | 335 | 0.0 | 0.0 | 0.00 | 0.48 | 0.48 | 65 | 1010.8 |
| 20260508191553 | 25 | 333 | 0.0 | 0.0 | 0.00 | 0.48 | 0.48 | 65 | 1010.7 |
| 20260508191027 | 25 | 333 | 0.0 | 0.0 | 0.00 | 0.48 | 0.48 | 64 | 1010.8 |
| 20260508190554 | 25 | 333 | 0.0 | 0.0 | 0.00 | 0.48 | 0.48 | 62 | 1010.8 |
| 20260508190030 | 25 | 333 | 0.0 | 0.0 | 0.00 | 0.48 | 0.48 | 64 | 1010.9 |
| 20260508185538 | 25 | 334 | 0.0 | 0.0 | 0.00 | 0.48 | 0.48 | 63 | 1010.9 |
| 20260508185031 | 25 | 335 | 0.0 | 0.0 | 0.00 | 0.48 | 0.48 | 65 | 1011.0 |
| 20260508184539 | 25 | 333 | 0.0 | 0.0 | 0.00 | 0.48 | 0.48 | 65 | 1011.0 |
| 20260508184046 | 25 | 333 | 0.0 | 0.0 | 0.00 | 0.48 | 0.48 | 67 | 1011.0 |
| 20260508183537 | 24 | 335 | 0.0 | 0.0 | 0.00 | 0.48 | 0.48 | 66 | 1011.2 |
| 20260508183031 | 24 | 333 | 0.0 | 0.0 | 0.00 | 0.48 | 0.48 | 66 | 1011.3 |
| 20260508182605 | 24 | 333 | 0.0 | 0.0 | 0.00 | 0.48 | 0.48 | 69 | 1011.4 |
| 20260508182102 | 23 | 333 | 0.0 | 0.0 | 0.00 | 0.48 | 0.48 | 67 | 1011.6 |
| 20260508181530 | 23 | 334 | 0.0 | 0.0 | 0.00 | 0.48 | 0.48 | 69 | 1011.8 |
| 20260508181041 | 23 | 333 | 0.0 | 0.0 | 0.00 | 0.48 | 0.48 | 68 | 1011.7 |
| 20260508180529 | 23 | 333 | 0.0 | 0.0 | 0.00 | 0.48 | 0.48 | 67 | 1011.8 |
| 20260508180105 | 23 | 333 | 0.0 | 0.0 | 0.00 | 0.48 | 0.48 | 66 | 1011.9 |
| 20260508175554 | 23 | 333 | 0.0 | 0.0 | 0.00 | 0.48 | 0.48 | 69 | 1012.1 |
| 20260508175029 | 22 | 333 | 0.0 | 0.0 | 0.00 | 0.48 | 0.48 | 69 | 1012.2 |
| 20260508174542 | 22 | 332 | 0.0 | 0.0 | 0.00 | 0.48 | 0.48 | 72 | 1012.3 |
| 20260508174035 | 22 | 331 | 0.0 | 0.0 | 0.00 | 0.48 | 0.48 | 72 | 1012.4 |
| 20260508173542 | 22 | 334 | 0.0 | 0.0 | 0.00 | 0.48 | 0.48 | 72 | 1012.7 |
| 20260508173035 | 22 | 333 | 0.0 | 0.0 | 0.00 | 0.48 | 0.48 | 74 | 1012.8 |
| 20260508172548 | 22 | 333 | 0.0 | 0.0 | 0.00 | 0.48 | 0.48 | 75 | 1012.9 |
| 20260508172036 | 21 | 333 | 0.0 | 0.0 | 0.00 | 0.48 | 0.48 | 75 | 1013.0 |
| 20260508171547 | 21 | 335 | 0.0 | 0.0 | 0.00 | 0.48 | 0.48 | 75 | 1013.0 |
| 20260508171038 | 21 | 334 | 0.0 | 0.0 | 0.00 | 0.48 | 0.48 | 75 | 1013.1 |
| 20260508170530 | 21 | 336 | 0.0 | 0.0 | 0.00 | 0.48 | 0.48 | 78 | 1013.3 |
| 20260508170039 | 21 | 335 | 0.0 | 0.0 | 0.00 | 0.48 | 0.48 | 78 | 1013.4 |
| 20260508165556 | 20 | 336 | 0.0 | 0.0 | 0.00 | 0.48 | 0.48 | 78 | 1013.5 |
| 20260508165044 | 20 | 336 | 0.0 | 0.0 | 0.00 | 0.48 | 0.48 | 80 | 1013.6 |
| 20260508164538 | 20 | 336 | 0.0 | 0.0 | 0.00 | 0.48 | 0.48 | 83 | 1013.7 |
| 20260508164045 | 19 | 334 | 0.0 | 0.0 | 0.03 | 0.48 | 0.48 | 84 | 1013.8 |
| 20260508163536 | 19 | 333 | 0.0 | 0.0 | 0.03 | 0.48 | 0.48 | 85 | 1013.9 |
| 20260508163106 | 18 | 336 | 0.0 | 0.0 | 0.03 | 0.48 | 0.48 | 86 | 1013.9 |
| 20260508162607 | 18 | 335 | 0.0 | 0.0 | 0.03 | 0.48 | 0.48 | 86 | 1013.9 |
| 20260508162037 | 18 | 335 | 0.0 | 0.0 | 0.03 | 0.48 | 0.48 | 88 | 1014.0 |
| 20260508161545 | 18 | 336 | 0.0 | 0.0 | 0.03 | 0.48 | 0.48 | 88 | 1013.9 |
| 20260508161031 | 18 | 336 | 0.0 | 0.0 | 0.03 | 0.48 | 0.48 | 88 | 1014.0 |
| 20260508160543 | 18 | 336 | 0.0 | 0.0 | 0.03 | 0.48 | 0.48 | 88 | 1014.1 |
| 20260508160032 | 18 | 335 | 0.0 | 0.0 | 0.03 | 0.48 | 0.48 | 88 | 1014.1 |
| 20260508155543 | 17 | 336 | 0.0 | 0.0 | 0.03 | 0.48 | 0.48 | 88 | 1013.9 |
| 20260508155030 | 17 | 336 | 0.0 | 0.0 | 0.03 | 0.48 | 0.48 | 88 | 1014.2 |
| 20260508154604 | 17 | 335 | 0.0 | 0.0 | 0.03 | 0.48 | 0.48 | 89 | 1014.3 |
| 20260508154034 | 17 | 336 | 0.0 | 0.0 | 0.00 | 0.46 | 0.46 | 90 | 1014.3 |
| 20260508153544 | 17 | 334 | 0.0 | 0.0 | 0.00 | 0.46 | 0.46 | 90 | 1014.2 |
| 20260508153033 | 17 | 336 | 0.0 | 0.0 | 0.00 | 0.46 | 0.46 | 90 | 1014.3 |
| 20260508152541 | 17 | 336 | 0.0 | 0.0 | 0.00 | 0.46 | 0.46 | 90 | 1014.2 |
| 20260508152055 | 17 | 334 | 0.0 | 0.0 | 0.00 | 0.46 | 0.46 | 89 | 1014.2 |
| 20260508151532 | 17 | 334 | 0.0 | 0.0 | 0.00 | 0.46 | 0.46 | 89 | 1014.3 |
| 20260508151044 | 17 | 335 | 0.0 | 0.0 | 0.00 | 0.46 | 0.46 | 89 | 1014.3 |
| 20260508150530 | 17 | 335 | 0.0 | 0.0 | 0.00 | 0.46 | 0.46 | 88 | 1014.3 |
| 20260508150038 | 17 | 335 | 0.0 | 0.0 | 0.00 | 0.46 | 0.46 | 88 | 1014.3 |
| 20260508145529 | 17 | 335 | 0.0 | 0.0 | 0.00 | 0.46 | 0.46 | 90 | 1014.5 |
| 20260508145041 | 17 | 337 | 0.0 | 0.0 | 0.00 | 0.46 | 0.46 | 91 | 1014.4 |
| 20260508144533 | 17 | 334 | 0.0 | 0.0 | 0.03 | 0.46 | 0.46 | 92 | 1014.3 |
| 20260508144043 | 17 | 336 | 0.0 | 0.0 | 0.03 | 0.46 | 0.46 | 92 | 1014.4 |
| 20260508143529 | 17 | 335 | 0.0 | 0.0 | 0.03 | 0.46 | 0.46 | 92 | 1014.4 |
| 20260508143043 | 16 | 335 | 0.0 | 0.0 | 0.03 | 0.46 | 0.46 | 92 | 1014.4 |
| 20260508142536 | 16 | 335 | 0.0 | 0.0 | 0.05 | 0.46 | 0.46 | 92 | 1014.5 |
| 20260508142044 | 16 | 334 | 0.0 | 0.0 | 0.05 | 0.46 | 0.46 | 92 | 1014.5 |
| 20260508141535 | 16 | 335 | 0.0 | 0.0 | 0.08 | 0.46 | 0.46 | 92 | 1014.7 |
| 20260508141047 | 16 | 335 | 0.0 | 0.0 | 0.08 | 0.46 | 0.46 | 92 | 1014.8 |
| 20260508140536 | 16 | 335 | 0.0 | 0.0 | 0.10 | 0.46 | 0.46 | 92 | 1014.7 |
| 20260508140047 | 16 | 335 | 0.0 | 0.0 | 0.10 | 0.46 | 0.46 | 92 | 1014.9 |
| 20260508135535 | 16 | 335 | 0.0 | 0.0 | 0.13 | 0.46 | 0.46 | 92 | 1014.9 |
| 20260508135041 | 16 | 335 | 0.0 | 0.0 | 0.13 | 0.46 | 0.46 | 92 | 1015.1 |
| 20260508134555 | 16 | 336 | 0.0 | 0.0 | 0.13 | 0.43 | 0.43 | 92 | 1015.2 |
| 20260508134027 | 16 | 334 | 0.0 | 0.0 | 0.15 | 0.43 | 0.43 | 92 | 1014.9 |
| 20260508133540 | 16 | 334 | 0.0 | 0.0 | 0.15 | 0.43 | 0.43 | 92 | 1014.7 |
| 20260508133054 | 16 | 335 | 0.0 | 0.0 | 0.18 | 0.43 | 0.43 | 92 | 1014.7 |
| 20260508132544 | 16 | 334 | 0.0 | 0.0 | 0.15 | 0.41 | 0.41 | 92 | 1014.8 |
| 20260508132031 | 15 | 334 | 0.0 | 0.0 | 0.18 | 0.41 | 0.41 | 92 | 1014.7 |
| 20260508131538 | 15 | 334 | 0.0 | 0.0 | 0.18 | 0.38 | 0.38 | 92 | 1015.1 |
| 20260508131045 | 15 | 334 | 0.0 | 0.0 | 0.18 | 0.38 | 0.38 | 92 | 1014.9 |
| 20260508130532 | 15 | 334 | 0.0 | 0.0 | 0.18 | 0.36 | 0.36 | 92 | 1014.5 |
| 20260508130038 | 15 | 334 | 0.0 | 0.0 | 0.20 | 0.36 | 0.36 | 92 | 1014.7 |
| 20260508125532 | 15 | 335 | 0.0 | 0.0 | 0.18 | 0.33 | 0.33 | 92 | 1014.8 |
| 20260508125039 | 15 | 336 | 0.0 | 0.0 | 0.20 | 0.33 | 0.33 | 92 | 1014.9 |
| 20260508124535 | 15 | 335 | 0.0 | 0.0 | 0.18 | 0.30 | 0.30 | 92 | 1015.0 |
| 20260508124100 | 15 | 336 | 0.0 | 0.0 | 0.18 | 0.28 | 0.28 | 92 | 1015.0 |
| 20260508123536 | 15 | 336 | 0.0 | 0.0 | 0.18 | 0.28 | 0.28 | 92 | 1015.1 |
| 20260508123045 | 15 | 336 | 0.0 | 0.0 | 0.15 | 0.25 | 0.25 | 92 | 1015.4 |
| 20260508122552 | 15 | 336 | 0.0 | 0.0 | 0.15 | 0.25 | 0.25 | 91 | 1015.2 |
| 20260508122039 | 15 | 336 | 0.0 | 0.0 | 0.15 | 0.23 | 0.23 | 91 | 1015.6 |
| 20260508121552 | 15 | 336 | 0.0 | 0.0 | 0.13 | 0.20 | 0.20 | 91 | 1015.1 |
| 20260508121043 | 15 | 337 | 0.0 | 0.0 | 0.13 | 0.20 | 0.20 | 91 | 1015.4 |
| 20260508120538 | 15 | 337 | 0.0 | 0.0 | 0.13 | 0.18 | 0.18 | 91 | 1015.4 |
| 20260508120032 | 15 | 334 | 0.0 | 0.0 | 0.10 | 0.15 | 0.15 | 91 | 1014.9 |
| 20260508115540 | 15 | 334 | 0.0 | 0.0 | 0.10 | 0.15 | 0.15 | 91 | 1014.8 |
| 20260508115048 | 15 | 336 | 0.0 | 0.0 | 0.10 | 0.13 | 0.13 | 91 | 1015.8 |
| 20260508114535 | 15 | 336 | 0.0 | 0.0 | 0.10 | 0.13 | 0.13 | 91 | 1014.9 |
| 20260508114045 | 15 | 337 | 0.0 | 0.0 | 0.08 | 0.10 | 0.10 | 91 | 1014.7 |
| 20260508113537 | 15 | 338 | 0.0 | 0.0 | 0.08 | 0.10 | 0.10 | 91 | 1014.3 |
| 20260508113033 | 15 | 335 | 0.0 | 0.0 | 0.10 | 0.10 | 0.10 | 92 | 1014.2 |
| 20260508112543 | 15 | 336 | 0.0 | 0.0 | 0.10 | 0.10 | 0.10 | 92 | 1014.0 |
| 20260508112029 | 15 | 336 | 0.0 | 0.0 | 0.08 | 0.08 | 0.08 | 92 | 1014.1 |
| 20260508111604 | 15 | 335 | 0.0 | 0.0 | 0.08 | 0.08 | 0.08 | 92 | 1014.0 |
| 20260508111029 | 15 | 336 | 0.0 | 0.0 | 0.08 | 0.08 | 0.08 | 91 | 1014.5 |
| 20260508110603 | 15 | 337 | 0.0 | 0.0 | 0.05 | 0.05 | 0.05 | 91 | 1014.7 |
| 20260508110030 | 15 | 337 | 0.0 | 0.0 | 0.05 | 0.05 | 0.05 | 91 | 1014.8 |
| 20260508105541 | 15 | 337 | 0.0 | 0.0 | 0.05 | 0.05 | 0.05 | 91 | 1014.8 |
| 20260508105052 | 15 | 336 | 0.0 | 0.0 | 0.03 | 0.03 | 0.03 | 91 | 1014.2 |
| 20260508104543 | 15 | 334 | 0.0 | 0.0 | 0.03 | 0.03 | 0.03 | 91 | 1014.2 |
| 20260508104057 | 15 | 337 | 0.0 | 0.0 | 0.03 | 0.03 | 0.03 | 91 | 1014.6 |
| 20260508103529 | 15 | 335 | 0.0 | 0.0 | 0.03 | 0.03 | 0.03 | 91 | 1014.6 |
| 20260508103036 | 15 | 336 | 0.0 | 0.0 | 0.00 | 0.00 | 0.00 | 90 | 1014.5 |
| 20260508102608 | 15 | 337 | 0.0 | 0.0 | 0.00 | 0.00 | 0.00 | 90 | 1014.1 |
| 20260508102036 | 15 | 336 | 0.0 | 0.0 | 0.00 | 0.00 | 0.00 | 90 | 1014.3 |
| 20260508101608 | 15 | 335 | 0.0 | 0.0 | 0.00 | 0.00 | 0.00 | 90 | 1014.3 |
| 20260508101034 | 15 | 335 | 0.0 | 0.0 | 0.00 | 0.00 | 0.00 | 89 | 1013.6 |
| 20260508100545 | 15 | 335 | 0.0 | 0.0 | 0.00 | 0.00 | 0.00 | 89 | 1014.2 |
| 20260508100033 | 15 | 335 | 0.0 | 0.0 | 0.00 | 0.00 | 0.00 | 89 | 1014.0 |
| 20260508095608 | 15 | 335 | 0.0 | 0.0 | 0.00 | 0.00 | 0.00 | 88 | 1013.6 |
| 20260508095035 | 15 | 335 | 0.0 | 0.0 | 0.00 | 0.00 | 0.00 | 88 | 1014.0 |
| 20260508094545 | 15 | 335 | 0.0 | 0.0 | 0.00 | 0.00 | 0.00 | 88 | 1014.1 |
| 20260508094034 | 15 | 335 | 0.0 | 0.0 | 0.00 | 0.00 | 0.00 | 88 | 1014.1 |
| 20260508093542 | 15 | 335 | 0.0 | 0.0 | 0.00 | 0.00 | 0.00 | 88 | 1013.9 |
| 20260508093030 | 15 | 335 | 0.0 | 0.0 | 0.00 | 0.00 | 0.00 | 88 | 1013.9 |
| 20260508092541 | 15 | 335 | 0.0 | 0.0 | 0.00 | 0.00 | 0.00 | 88 | 1013.8 |
| 20260508092029 | 15 | 335 | 0.0 | 0.0 | 0.00 | 0.00 | 0.00 | 88 | 1014.0 |
| 20260508091539 | 15 | 335 | 0.0 | 0.0 | 0.00 | 0.00 | 0.00 | 87 | 1014.0 |
| 20260508091046 | 15 | 335 | 0.0 | 0.0 | 0.00 | 0.00 | 0.00 | 87 | 1014.2 |
| 20260508090534 | 16 | 335 | 0.0 | 0.0 | 0.00 | 0.00 | 0.00 | 87 | 1014.1 |
| 20260508090040 | 16 | 336 | 0.0 | 0.0 | 0.00 | 0.00 | 0.00 | 87 | 1014.4 |
| 20260508085532 | 16 | 336 | 0.0 | 0.0 | 0.00 | 0.00 | 0.00 | 87 | 1014.2 |
| 20260508085046 | 16 | 336 | 0.0 | 0.0 | 0.00 | 0.00 | 0.00 | 87 | 1014.2 |
| 20260508084557 | 16 | 336 | 0.0 | 0.0 | 0.00 | 0.00 | 0.00 | 87 | 1014.5 |
| 20260508084045 | 16 | 336 | 0.0 | 0.0 | 0.00 | 0.00 | 0.00 | 87 | 1014.3 |
| 20260508083602 | 16 | 336 | 0.0 | 0.0 | 0.00 | 0.00 | 0.00 | 87 | 1014.3 |
| 20260508083032 | 16 | 336 | 0.0 | 0.0 | 0.00 | 0.00 | 0.00 | 87 | 1014.5 |
| 20260508082540 | 16 | 336 | 0.0 | 0.0 | 0.00 | 0.00 | 0.00 | 87 | 1014.8 |
| 20260508082046 | 16 | 335 | 0.0 | 0.0 | 0.00 | 0.00 | 0.00 | 87 | 1014.6 |
| 20260508081539 | 16 | 335 | 0.0 | 0.0 | 0.00 | 0.00 | 0.00 | 87 | 1014.7 |
| 20260508081032 | 15 | 334 | 0.0 | 0.0 | 0.00 | 0.00 | 0.00 | 87 | 1014.8 |
| 20260508080546 | 15 | 335 | 0.0 | 0.0 | 0.00 | 0.00 | 0.00 | 86 | 1014.4 |
| 20260508080039 | 15 | 336 | 0.0 | 0.0 | 0.00 | 0.00 | 0.00 | 86 | 1015.1 |
| 20260508075531 | 15 | 336 | 0.0 | 0.0 | 0.00 | 0.00 | 0.00 | 87 | 1015.2 |
| 20260508075102 | 15 | 336 | 0.0 | 0.0 | 0.00 | 0.00 | 0.00 | 87 | 1015.1 |
| 20260508074532 | 15 | 336 | 0.0 | 0.0 | 0.00 | 0.00 | 0.00 | 87 | 1015.5 |
| 20260508074045 | 15 | 336 | 0.0 | 0.0 | 0.00 | 0.00 | 0.00 | 87 | 1015.4 |
| 20260508073536 | 15 | 335 | 0.0 | 0.0 | 0.00 | 0.00 | 0.00 | 87 | 1015.1 |
| 20260508073044 | 15 | 335 | 0.0 | 0.0 | 0.00 | 0.00 | 0.00 | 87 | 1014.8 |
| 20260508072531 | 15 | 335 | 0.0 | 0.0 | 0.00 | 0.00 | 0.00 | 87 | 1014.9 |
| 20260508072045 | 15 | 335 | 0.0 | 0.0 | 0.00 | 0.00 | 0.00 | 87 | 1015.0 |
| 20260508071540 | 15 | 335 | 0.0 | 0.0 | 0.00 | 0.00 | 0.00 | 87 | 1015.2 |
| 20260508071046 | 15 | 335 | 0.0 | 0.0 | 0.00 | 0.00 | 0.00 | 87 | 1015.1 |
| 20260508070535 | 15 | 335 | 0.0 | 0.0 | 0.00 | 0.00 | 0.00 | 87 | 1015.4 |
| 20260508070043 | 15 | 335 | 0.0 | 0.0 | 0.00 | 0.00 | 0.00 | 87 | 1015.5 |
| 20260508065553 | 15 | 335 | 0.0 | 0.0 | 0.00 | 0.00 | 0.00 | 86 | 1015.6 |
| 20260508065043 | 15 | 335 | 0.0 | 0.0 | 0.00 | 0.00 | 0.00 | 86 | 1015.6 |